Terug naar catalogus

CZ-4B DEB

ActiefSSO
NORAD 35571·DEBRIS·🇨🇳 China

Gelanceerd Oct 25, 2008 vanaf Taiyuan Satellite Launch Center

Loading…

Volgende Passages (komende 24 uur)

TLE

VersSource: Space-Track

Epoch: Sep 14, 2026, 12:17 UTC

1 35571U 08053G   26257.51218754  .00006107  00000-0  54639-3 0  9996
2 35571  97.6011 281.3904 0097531 128.2260 232.7790 14.92576830945867

Volg CZ-4B DEB in realtime met AllMySat

Download on the App Store